Hourly Weather Kpalime

Today, 22 October, Thursday

Time Temperature Precipitation Wind Pressure Humidity
00:00 +23°C° 0 mm 0 mps 737 mmHg 95%
01:00 +22°C° 0 mm 0 mps 737 mmHg 96%
02:00 +22°C° 0 mm 0 mps 737 mmHg 96%
03:00 +22°C° 0 mm 0 mps 736 mmHg 96%
04:00 +22°C° 0 mm 0 mps 737 mmHg 96%
05:00 +22°C° 0 mm 0 mps 737 mmHg 97%
06:00 +22°C° 0 mm 0 mps 737 mmHg 97%
07:00 +24°C° 0 mm 0 mps 738 mmHg 90%
08:00 +28°C° 0 mm 1 mps 738 mmHg 84%
09:00 +30°C° 0 mm 1 mps 738 mmHg 77%
10:00 +31°C° 0 mm 1 mps 738 mmHg 71%
11:00 +32°C° 0 mm 1 mps 737 mmHg 65%
12:00 +34°C° 0 mm 2 mps 737 mmHg 58%
13:00 +34°C° 0.1 mm 2 mps 736 mmHg 57%
14:00 +33°C° 0.1 mm 1 mps 736 mmHg 56%
15:00 +33°C° 0.1 mm 1 mps 735 mmHg 55%
16:00 +31°C° 0.2 mm 1 mps 736 mmHg 64%
17:00 +29°C° 0.2 mm 1 mps 736 mmHg 73%
18:00 +27°C° 0.2 mm 1 mps 736 mmHg 81%
19:00 +27°C° 0.5 mm 1 mps 737 mmHg 86%
20:00 +26°C° 0.5 mm 1 mps 737 mmHg 91%
21:00 +25°C° 0.5 mm 1 mps 738 mmHg 95%
22:00 +25°C° 0.1 mm 1 mps 738 mmHg 96%
23:00 +25°C° 0.1 mm 1 mps 737 mmHg 96%

Tomorrow, 23 October, Friday

Time Temperature Precipitation Wind Pressure Humidity
00:00 +22°C° 0.1 mm 0 mps 737 mmHg 97%
01:00 +22°C° 0.4 mm 0 mps 737 mmHg 97%
02:00 +22°C° 0.4 mm 0 mps 737 mmHg 97%
03:00 +22°C° 0.4 mm 0 mps 737 mmHg 97%
04:00 +22°C° 0 mm 0 mps 737 mmHg 97%
05:00 +22°C° 0 mm 0 mps 737 mmHg 97%
06:00 +24°C° 0 mm 1 mps 737 mmHg 97%
07:00 +26°C° 0 mm 1 mps 738 mmHg 91%
08:00 +27°C° 0 mm 1 mps 738 mmHg 85%
09:00 +29°C° 0 mm 1 mps 739 mmHg 79%
10:00 +31°C° 0 mm 1 mps 738 mmHg 72%
11:00 +32°C° 0 mm 1 mps 737 mmHg 66%
12:00 +33°C° 0 mm 1 mps 737 mmHg 59%
13:00 +33°C° 0.2 mm 1 mps 736 mmHg 59%
14:00 +33°C° 0.2 mm 1 mps 736 mmHg 59%
15:00 +33°C° 0.2 mm 1 mps 736 mmHg 59%
16:00 +31°C° 0.3 mm 1 mps 736 mmHg 67%
17:00 +29°C° 0.3 mm 1 mps 736 mmHg 76%
18:00 +27°C° 0.3 mm 1 mps 736 mmHg 84%
19:00 +26°C° 0 mm 1 mps 737 mmHg 88%
20:00 +26°C° 0 mm 1 mps 737 mmHg 91%
21:00 +25°C° 0 mm 1 mps 738 mmHg 94%
22:00 +25°C° 0 mm 1 mps 738 mmHg 95%
23:00 +25°C° 0 mm 1 mps 737 mmHg 96%

Day after tomorrow, 24 October, Saturday

Time Temperature Precipitation Wind Pressure Humidity
00:00 +24°C° 0 mm 1 mps 737 mmHg 97%
01:00 +24°C° 0 mm 1 mps 737 mmHg 97%
02:00 +22°C° 0 mm 0 mps 737 mmHg 98%
03:00 +22°C° 0 mm 0 mps 736 mmHg 98%
04:00 +22°C° 0 mm 0 mps 736 mmHg 98%
05:00 +22°C° 0 mm 0 mps 737 mmHg 98%
06:00 +22°C° 0 mm 0 mps 737 mmHg 98%
07:00 +25°C° 0 mm 1 mps 737 mmHg 92%
08:00 +27°C° 0 mm 1 mps 738 mmHg 86%
09:00 +29°C° 0 mm 1 mps 738 mmHg 80%
10:00 +30°C° 0 mm 1 mps 738 mmHg 72%
11:00 +32°C° 0 mm 1 mps 737 mmHg 65%
12:00 +33°C° 0 mm 1 mps 737 mmHg 58%
13:00 +33°C° 0.3 mm 1 mps 737 mmHg 61%
14:00 +32°C° 0.3 mm 1 mps 736 mmHg 64%
15:00 +32°C° 0.3 mm 1 mps 736 mmHg 67%
16:00 +30°C° 0.6 mm 1 mps 736 mmHg 74%
17:00 +28°C° 0.6 mm 1 mps 736 mmHg 81%
18:00 +26°C° 0.6 mm 1 mps 736 mmHg 88%
19:00 +26°C° 0.2 mm 1 mps 737 mmHg 91%
20:00 +25°C° 0.2 mm 1 mps 737 mmHg 93%
21:00 +25°C° 0.2 mm 1 mps 738 mmHg 95%
22:00 +25°C° 0 mm 1 mps 738 mmHg 96%
23:00 +24°C° 0 mm 1 mps 737 mmHg 97%

, 25 October, Sunday

Time Temperature Precipitation Wind Pressure Humidity
00:00 +24°C° 0 mm 1 mps 737 mmHg 98%
01:00 +24°C° 0 mm 1 mps 737 mmHg 98%
02:00 +24°C° 0 mm 1 mps 736 mmHg 98%
03:00 +24°C° 0 mm 1 mps 736 mmHg 98%
04:00 +22°C° 0 mm 0 mps 736 mmHg 98%
05:00 +22°C° 0 mm 0 mps 736 mmHg 98%
06:00 +22°C° 0 mm 0 mps 736 mmHg 98%
07:00 +25°C° 0 mm 1 mps 737 mmHg 91%
08:00 +27°C° 0 mm 1 mps 737 mmHg 84%
09:00 +29°C° 0 mm 1 mps 738 mmHg 78%
10:00 +31°C° 0 mm 1 mps 737 mmHg 71%
11:00 +32°C° 0 mm 1 mps 737 mmHg 65%
12:00 +33°C° 0 mm 1 mps 736 mmHg 59%
13:00 +33°C° 0.5 mm 1 mps 736 mmHg 61%
14:00 +32°C° 0.5 mm 1 mps 735 mmHg 64%
15:00 +32°C° 0.5 mm 1 mps 735 mmHg 66%
16:00 +30°C° 0.5 mm 1 mps 735 mmHg 74%
17:00 +28°C° 0.5 mm 1 mps 735 mmHg 81%
18:00 +27°C° 0.5 mm 1 mps 735 mmHg 88%
19:00 +26°C° 0.7 mm 1 mps 736 mmHg 90%
20:00 +26°C° 0.7 mm 1 mps 737 mmHg 93%
21:00 +25°C° 0.7 mm 1 mps 737 mmHg 95%
22:00 +25°C° 0.1 mm 1 mps 737 mmHg 96%
23:00 +24°C° 0.1 mm 1 mps 736 mmHg 97%

25 October, Sunday

Time Temperature Precipitation Wind Pressure Humidity
00:00 +24°C° 0 mm 1 mps 737 mmHg 98%
01:00 +24°C° 0 mm 1 mps 737 mmHg 98%
02:00 +24°C° 0 mm 1 mps 736 mmHg 98%
03:00 +24°C° 0 mm 1 mps 736 mmHg 98%
04:00 +22°C° 0 mm 0 mps 736 mmHg 98%
05:00 +22°C° 0 mm 0 mps 736 mmHg 98%
06:00 +22°C° 0 mm 0 mps 736 mmHg 98%
07:00 +25°C° 0 mm 1 mps 737 mmHg 91%
08:00 +27°C° 0 mm 1 mps 737 mmHg 84%
09:00 +29°C° 0 mm 1 mps 738 mmHg 78%
10:00 +31°C° 0 mm 1 mps 737 mmHg 71%
11:00 +32°C° 0 mm 1 mps 737 mmHg 65%
12:00 +33°C° 0 mm 1 mps 736 mmHg 59%
13:00 +33°C° 0.5 mm 1 mps 736 mmHg 61%
14:00 +32°C° 0.5 mm 1 mps 735 mmHg 64%
15:00 +32°C° 0.5 mm 1 mps 735 mmHg 66%
16:00 +30°C° 0.5 mm 1 mps 735 mmHg 74%
17:00 +28°C° 0.5 mm 1 mps 735 mmHg 81%
18:00 +27°C° 0.5 mm 1 mps 735 mmHg 88%
19:00 +26°C° 0.7 mm 1 mps 736 mmHg 90%
20:00 +26°C° 0.7 mm 1 mps 737 mmHg 93%
21:00 +25°C° 0.7 mm 1 mps 737 mmHg 95%
22:00 +25°C° 0.1 mm 1 mps 737 mmHg 96%
23:00 +24°C° 0.1 mm 1 mps 736 mmHg 97%

26 October, Monday

Time Temperature Precipitation Wind Pressure Humidity
00:00 +22°C° 0.1 mm 0 mps 736 mmHg 97%
01:00 +22°C° 0 mm 0 mps 736 mmHg 97%
02:00 +22°C° 0 mm 0 mps 735 mmHg 97%
03:00 +22°C° 0 mm 0 mps 735 mmHg 97%
04:00 +22°C° 0 mm 0 mps 735 mmHg 97%
05:00 +22°C° 0 mm 0 mps 735 mmHg 97%
06:00 +22°C° 0 mm 0 mps 736 mmHg 97%
07:00 +24°C° 0 mm 0 mps 736 mmHg 90%
08:00 +26°C° 0 mm 0 mps 737 mmHg 83%
09:00 +30°C° 0 mm 1 mps 737 mmHg 76%
10:00 +31°C° 0 mm 1 mps 737 mmHg 70%
11:00 +32°C° 0 mm 1 mps 736 mmHg 63%
12:00 +34°C° 0 mm 1 mps 736 mmHg 57%
13:00 +33°C° 0.1 mm 1 mps 735 mmHg 56%
14:00 +33°C° 0.1 mm 1 mps 734 mmHg 56%
15:00 +33°C° 0.1 mm 1 mps 734 mmHg 56%
16:00 +31°C° 0.2 mm 1 mps 734 mmHg 65%
17:00 +29°C° 0.2 mm 1 mps 734 mmHg 74%
18:00 +27°C° 0.2 mm 1 mps 734 mmHg 82%
19:00 +27°C° 0.1 mm 1 mps 735 mmHg 87%
20:00 +26°C° 0.1 mm 1 mps 735 mmHg 92%
21:00 +25°C° 0.1 mm 1 mps 736 mmHg 97%
22:00 +25°C° 0 mm 1 mps 736 mmHg 97%
23:00 +25°C° 0 mm 1 mps 736 mmHg 97%

27 October, Tuesday

Time Temperature Precipitation Wind Pressure Humidity
00:00 +25°C° 0 mm 1 mps 736 mmHg 97%
01:00 +25°C° 0 mm 1 mps 735 mmHg 97%
02:00 +25°C° 0 mm 1 mps 735 mmHg 97%
03:00 +25°C° 0 mm 1 mps 735 mmHg 96%
04:00 +25°C° 0 mm 1 mps 735 mmHg 96%
05:00 +25°C° 0 mm 1 mps 735 mmHg 96%
06:00 +23°C° 0 mm 0 mps 735 mmHg 95%
07:00 +26°C° 0 mm 1 mps 736 mmHg 88%
08:00 +28°C° 0 mm 1 mps 736 mmHg 82%
09:00 +30°C° 0 mm 1 mps 737 mmHg 75%
10:00 +31°C° 0 mm 1 mps 736 mmHg 69%
11:00 +32°C° 0 mm 1 mps 736 mmHg 63%
12:00 +33°C° 0 mm 1 mps 735 mmHg 56%
13:00 +33°C° 0.1 mm 1 mps 735 mmHg 56%
14:00 +33°C° 0.1 mm 1 mps 734 mmHg 56%
15:00 +34°C° 0.1 mm 2 mps 733 mmHg 56%
16:00 +31°C° 0.1 mm 1 mps 733 mmHg 64%
17:00 +29°C° 0.1 mm 1 mps 734 mmHg 72%
18:00 +27°C° 0.1 mm 1 mps 734 mmHg 80%
19:00 +27°C° 0 mm 1 mps 734 mmHg 85%
20:00 +26°C° 0 mm 1 mps 735 mmHg 89%
21:00 +25°C° 0 mm 1 mps 735 mmHg 94%
22:00 +25°C° 0 mm 1 mps 735 mmHg 95%
23:00 +25°C° 0 mm 1 mps 735 mmHg 95%
Show more